Location: Arboyeti
(42.1122°N, 44.6017°E)
Time: 20:22:42
(UTC+00:00)

BREEZE-M DEB (TANK) - Pass Details

Date: 19 April 2021
Orbit: 292 x 15379 km, 49.4° (Epoch: 17 May)

Event Time Altitude Azimuth Distance (km) Brightness Sun altitude
Rises 18:49:35 0° 291° (WNW) 6,744 9.2 -28.6°
Reaches altitude 10° 18:56:03 10° 296° (WNW) 3,971 7.9 -29.3°
Enters shadow 19:03:02 46° 348° (NNW) 917 4.2 -30.0°
